RH
20 28 26 19 23 24 22 20 22 21 21 23 24 22 20 21 26 47 64 86 90 90 92 83 79 75 83
42 34 34 32 31 30 26 24 24 21 20 18 22 27 34 69 71 89 95 92 93 90 76 75 77 76 80
41 46 35 38 37 40 28 27 26 28 24 40 59 69 82 90 94 100 99 67 65 70 79 80 79 84 78
86 94 88 92 85 77 74 72 74 69 92 98 92 93 90 95 100 85 71 77 77 78 81 91 90 81 76
96 99 100 100 100 100 100 100 98 100 100 100 95 99 97 93 90 85 86 94 91 85 79 87 87 83 74
85 88 94 91 96 99 99 100 100 100 100 99 100 98 100 95 82 88 94 99 94 91 96 92 88 93 82
69 78 75 83 80 90 94 93 87 83 86 88 95 90 96 92 96 95 90 84 85 99 92 93 84 96 83
73 69 75 82 85 79 86 91 92 90 87 74 86 87 84 100 100 99 95 98 98 100 100 93 88 97 98
95 86 76 70 74 76 78 80 91 91 94 83 81 90 100 100 97 100 100 100 100 100 93 89 95 99 100
91 85 79 87 96 93 83 78 63 57 75 85 94 97 100 100 98 100 100 100 100 97 100 95 99 100 93
86 84 88 90 86 77 81 90 84 89 88 92 98 98 92 96 100 97 98 96 91 99 91 89 100 89 89
81 90 93 96 99 100 100 100 100 100 99 88 76 95 97 90 83 86 76 81 83 87 89 98 77 76 62
84 90 88 87 88 88 89 90 78 74 71 68 78 68 74 88 60 68 88 68 79 80 63 67 66 68 66
72 72 69 65 61 64 68 67 67 66 62 58 70 74 51 65 86 70 69 67 65 57 68 61 61 71 71
54 51 51 56 61 63 62 58 58 56 45 58 56 59 59 54 68 72 70 65 59 67 63 75 83 76 82
54 53 54 52 52 52 51 54 52 58 55 55 60 61 73 65 67 69 70 72 82 75 62 74 83 91 85
43 39 40 45 47 48 51 55 57 56 63 62 67 59 66 75 72 74 77 80 87 92 89 85 92 78 95
Wind_Speed
56 57 59 59 60 61 62 63 63 64 65 66 67 68 69 72 73 73 75 77 80 81 83 85 87 91 92
58 58 60 62 63 64 66 66 67 68 68 69 68 71 72 73 77 76 78 81 81 84 87 87 89 92 92
60 63 62 64 64 65 68 69 70 71 71 69 69 72 73 75 77 79 79 81 83 85 87 88 90 90 94
61 62 63 66 68 69 68 70 71 72 72 72 74 76 78 78 80 82 81 82 84 87 88 88 90 94 99
65 66 66 67 70 72 73 75 74 75 74 77 78 80 82 82 85 86 86 87 88 90 92 91 94 99 102
71 70 72 72 73 75 76 77 78 79 80 79 83 84 87 89 87 90 91 92 95 95 95 98 100 100 104
81 80 80 82 81 80 81 82 85 83 82 82 86 88 91 92 96 95 96 97 99 100 100 99 100 103 107
89 88 87 87 90 86 88 87 87 88 91 89 90 93 93 97 99 100 101 102 102 102 104 103 101 105 110
97 96 94 94 93 94 94 94 93 93 95 95 94 96 98 101 103 101 102 103 103 103 105 105 106 109 111
101 101 101 101 102 101 99 98 98 95 98 101 100 102 101 102 100 103 103 103 105 106 106 108 109 111 113
106 107 107 108 107 106 106 107 107 106 106 106 106 107 105 104 104 104 105 107 107 109 109 111 112 115 114
111 112 113 113 114 113 114 115 113 113 112 111 108 107 108 109 109 108 109 108 110 112 114 114 115 114 115
119 119 118 119 119 119 118 117 115 114 114 113 114 113 111 111 112 112 114 114 115 115 116 115 116 118 116
127 127 127 126 126 125 125 124 123 121 120 119 117 118 117 117 117 118 119 117 119 119 118 119 120 118 117
131 129 128 128 129 128 127 126 125 124 123 123 123 123 122 121 120 121 121 123 122 122 124 121 120 117 115
133 131 131 131 131 131 131 131 129 129 129 128 127 126 125 125 123 124 124 125 124 125 121 118 114 116 113
135 134 134 134 135 133 132 131 131 130 131 130 129 129 129 129 127 125 123 123 123 119 116 114 112 110 107
Wind_Direction
284 285 288 288 289 290 290 292 292 292 294 295 297 299 300 301 302 303 305 306 307 307 309 310 311 312 311
284 283 285 287 289 290 290 291 292 293 295 296 299 299 301 301 302 304 305 307 308 308 308 309 310 311 313
281 284 285 286 286 287 288 289 291 292 294 296 296 297 298 299 302 305 306 305 306 308 309 310 311 312 314
282 284 286 287 288 287 288 288 290 293 295 296 295 297 298 301 301 303 303 305 306 307 309 310 310 312 315
279 282 284 284 284 285 286 287 289 291 293 294 295 297 298 299 302 303 305 305 306 307 309 310 311 312 315
280 281 281 281 282 284 285 286 286 288 291 293 294 297 299 300 300 301 304 304 306 307 308 309 310 312 315
281 282 282 283 284 285 286 287 287 288 289 291 294 297 299 300 302 304 304 304 306 307 307 309 309 313 314
281 280 282 283 286 285 286 286 288 289 290 291 294 296 299 301 301 303 303 304 306 305 306 307 309 310 313
282 283 284 284 283 284 285 286 286 289 291 292 295 296 297 299 299 301 302 302 303 303 304 307 308 310 310
282 283 284 285 285 286 286 286 287 289 291 293 294 294 296 296 297 297 299 299 300 303 305 305 306 306 309
279 281 282 284 286 288 290 290 290 291 291 291 292 292 294 296 295 295 297 298 301 302 302 303 305 306 309
281 282 284 285 287 287 287 287 287 288 289 290 290 291 290 291 293 294 295 298 298 301 302 303 304 305 306
280 280 281 282 283 283 284 285 285 286 287 289 288 289 291 292 292 295 296 298 298 300 301 302 303 304 307
280 281 282 282 283 284 284 285 285 285 286 287 289 288 290 292 293 294 295 297 297 299 300 302 303 303 306
277 277 278 278 278 279 280 281 282 282 284 286 287 288 289 291 291 292 294 295 297 297 298 299 301 304 304
275 276 277 277 278 279 279 280 282 283 284 285 287 287 287 288 290 290 291 294 295 295 297 300 301 302 306
275 276 276 276 277 277 278 278 279 280 281 283 285 285 287 287 290 290 291 291 294 296 297 297 301 300 305